Location: Newark
(16.3678°N, 77.8722°E)
Time: 10:14:38
(UTC+00:00)

SR - All Passes

Search period start: 09 December 2019 00:00
Search period end: 19 December 2019 00:00
Orbit: 573 x 882 km, 66.7° (Epoch: 08 December)

Date Brightness Start Highest point End Pass type
(mag) Time Alt. Az. Time Alt. Az. Time Alt. Az.
09 Dec - 02:25:19 10° SE 02:27:31 13° ESE 02:29:45 10° ENE daylight
09 Dec - 04:04:13 10° SW 04:09:01 43° WNW 04:14:15 10° N daylight
09 Dec - 14:40:19 10° NNW 14:45:53 71° WSW 14:50:58 10° SSE visible
10 Dec - 03:14:22 10° SSW 03:19:22 76° ESE 03:24:52 10° NNE daylight
10 Dec - 13:50:52 10° N 13:56:15 47° ENE 14:01:12 10° SE visible
10 Dec - 15:35:47 10° W 15:37:44 12° WSW 15:39:38 10° SW visible
11 Dec - 02:25:33 10° SSE 02:29:55 30° ESE 02:34:36 10° NE daylight
11 Dec - 04:08:07 10° WSW 04:11:55 20° WNW 04:15:55 10° NNW daylight
11 Dec - 13:02:19 10° NNE 13:06:25 21° ENE 13:10:16 10° ESE visible
11 Dec - 14:43:39 10° NW 14:48:24 30° WSW 14:52:50 10° SSW visible
12 Dec - 01:38:51 10° SE 01:40:36 12° ESE 01:42:24 10° E daylight
12 Dec - 03:17:10 10° SW 03:22:04 47° WNW 03:27:24 10° N daylight
12 Dec - 13:53:24 10° NNW 13:58:57 77° WSW 14:04:01 10° SSE visible
13 Dec - 02:27:25 10° SSW 02:32:26 70° ESE 02:37:56 10° NNE daylight
13 Dec - 13:04:00 10° N 13:09:17 44° ENE 13:14:10 10° SE visible
13 Dec - 14:48:26 10° WNW 14:50:49 13° WSW 14:53:07 10° SW visible
14 Dec - 01:38:43 10° SSE 01:43:00 28° ESE 01:47:35 10° NE daylight
14 Dec - 03:20:57 10° WSW 03:24:57 22° WNW 03:29:10 10° NNW daylight
14 Dec - 12:15:35 10° NNE 12:19:26 19° ENE 12:23:05 10° ESE daylight
14 Dec - 13:56:38 10° NW 14:01:29 33° WSW 14:05:59 10° S visible
15 Dec - 00:52:32 10° ESE 00:53:41 11° ESE 00:54:50 10° E daylight
15 Dec - 02:30:09 10° SW 02:35:07 51° WNW 02:40:32 10° N daylight
15 Dec - 13:06:28 10° NNW 13:12:01 83° WSW 13:17:04 10° SSE visible
16 Dec - 01:40:28 10° S 01:45:30 65° ESE 01:51:00 10° NNE daylight
16 Dec - 12:17:09 10° N 12:22:20 40° ENE 12:27:07 10° SE daylight
16 Dec - 14:01:11 10° WNW 14:03:54 14° WSW 14:06:31 10° SW visible
17 Dec - 00:51:53 10° SSE 00:56:05 26° ESE 01:00:33 10° NE daylight
17 Dec - 02:33:48 10° WSW 02:37:58 24° WNW 02:42:24 10° N daylight
17 Dec - 11:28:53 10° NNE 11:32:28 17° ENE 11:35:52 10° ESE daylight
17 Dec - 13:09:38 10° NW 13:14:33 35° WSW 13:19:07 10° S visible
18 Dec - 01:43:07 10° SW 01:48:09 56° WNW 01:53:40 10° N daylight
18 Dec - 12:19:33 10° NNW 12:25:04 89° WSW 12:30:06 10° SSE daylight
